COSMOS 2416

Satellite information

Favourite Embed

Satellite Type and Status

PAYLOADIN ORBIT

Key statistics

Satellite COSMOS 2416 at a glance.

Uptime

7303

Days in orbit

Revolutions

≈ 12.6

Per day

Orbit

LEO

Low Earth Orbit

Inclination

82.5

Latest

Satellite identification and parameters

Extended collection of information and parameters for COSMOS 2416.

Object identification

Identified? True

Debris? False

Object name: COSMOS 2416

International designator: 2005-048A

Object number (NORAD): 28908

Object ID (CCSDS): 28908

Country: COMMONWEALTH OF INDEPENDENT STATES (CIS)

Current information (Y/N): Y

RCS size: LARGE

Orbital parameters

Period: 114.687 minutes

Inclination: 82.469 deg

SMA: 7819.327 km

Apoapsis: 1447.318 km

Periapsis: 1435.066 km

RAAN: 63.1133 deg

Eccentricy: 0.00078342

Argument of periapsis: 204.0879 deg

Mean anomaly: 324.2024 deg

Mean motion: 12.55592469 rev/day

Mean motion (dot): 0.00000044 rev/day2

B* drag term: 0.0002067863 1/REarth

Two-line elements (TLE)

Creation date: Dec. 18, 2025, 8:02 p.m.

Reference frame: TEME

Reference center: EARTH

Epoch: Dec. 18, 2025, 3:48 p.m. UTC

TLE line 0: 0 COSMOS 2416

TLE line 1: 1 28908U 05048A 25352.65894861 .00000044 00000-0 20679-3 0 9993

TLE line 2: 2 28908 82.4690 63.1133 0007834 204.0879 324.2024 12.55592469916244

Live tracking on map

Real-time ground track for satellite COSMOS 2416.

In-orbit conjunctions

A list of the most updated potential collisions computed for object COSMOS 2416.

Target Orbit TCA Probability of collision Miss distance Type
COSMOS 1823 DEB LEO 2025-05-22 14:04:47 0.0006554354 168.0 (m) DEBRIS
COSMOS 1523 LEO 2025-04-22 06:32:52 0.0001866229 512.0 (m) PAYLOAD

Associated space launch

Strela-3M (also known as Rodnik-S) is an improved version of the Strela-3 military communications satellites. The first one was launched on 21.12.2005 on a Kosmos-3M booster together with a Gonets-M satellite, which represents the civilian version. Later satellites were launched on Rokot-KM boosters.

COSMOS 2416 was lifted into orbit during the mission ‘Kosmos-3M | Strela-3M 1’, on board a Kosmos-3M space rocket.

The launch took place on Dec. 21, 2005, 7:34 p.m. from 132/1 (132L).

For more information about the launch, click the button.

Launch to space Kosmos-3M | Strela-3M 1
Kosmos-3M | Strela-3M 1

Agency: N/A

Status: Launch Successful

Launch date: Dec. 21, 2005, 7:34 p.m. UTC

Rocket: Kosmos-3M

Launch pad: 132/1 (132L)

Location: Plesetsk Cosmodrome, Russian Federation

...

Latest news about this satellite

There are no fresh news available about this satellite. Check back as we update our databases every day.


Newsletter sign-up

Weekly statistics, charts and insights to help you stay on top of the space industry.